BEIDOU 6 (C04)

Last updated on Jan. 22, 2021, 6:27 a.m. UTC

1 37210U 10057A   21021.87583926 -.00000101  00000-0  00000+0 0  9992
2 37210   0.8838  50.8978 0005716 188.2472 357.6543  1.00272540 37509
UTC
Height (km)
Latitude
Longitude
Inclination
Orbital Period
UTC large
Height (km)
Speed (km/s)
/
Latitude / Longitude
Inclination (degrees)
Orbital Period (minutes)
Azimuth
Elevation
Range (km)
Doppler Factor
iOS Compass Heading
iOS Angle

Next 30 passes for location: Hong Kong

Rise time Rise Azimuth (degrees) Set time Set Azimuth (degrees) Duration Max altitude (degrees)

No matching passes for this satellites